RH
69 66 82 76 93 95 94 95 98 86 86 80 77 88 99 94 80 94 81 73 72 80 65 50 42 39 31 29 27 27 27 25 25 25 24 26 29 28 26 20 18 20 19 16 11 5 13 23 35
66 70 97 90 90 96 89 96 98 89 87 78 80 80 97 96 75 83 69 51 41 43 36 26 25 22 24 24 25 20 26 26 23 20 21 20 20 21 25 23 20 19 19 18 10 11 7 23 43
70 94 94 98 86 91 94 89 77 79 89 77 76 72 88 80 70 72 62 40 30 32 32 29 25 22 23 18 21 21 24 24 22 22 20 18 22 26 24 22 23 26 26 22 21 16 17 19 44
87 92 89 97 32 44 66 64 66 62 67 68 68 77 84 75 73 66 60 46 30 28 29 26 20 13 16 16 18 23 21 23 20 17 15 18 25 27 28 29 34 44 39 36 29 25 22 36 44
95 91 83 96 68 39 34 66 98 65 59 61 62 67 69 76 69 72 45 40 29 23 24 26 23 18 12 12 20 23 23 23 28 27 18 15 20 33 43 44 49 64 74 45 38 31 27 25 40
69 45 96 86 98 44 76 48 72 50 54 57 52 57 62 58 65 59 28 31 23 20 22 25 20 14 19 19 25 29 35 36 39 42 35 24 28 46 50 44 50 68 75 75 63 43 34 23 27
67 65 93 82 94 76 20 18 100 55 24 43 40 57 54 50 57 34 33 28 21 18 22 17 15 15 26 29 30 33 38 35 36 39 42 38 44 40 32 37 51 55 51 51 50 58 63 52 45
67 94 96 79 98 94 78 20 27 28 46 33 40 50 45 35 41 30 34 32 21 15 17 16 13 15 19 27 24 27 22 27 33 38 43 42 39 44 31 28 24 18 16 12 16 22 29 32 38
57 69 94 79 96 97 94 68 8 6 50 18 55 36 38 29 24 27 31 28 18 9 17 18 18 19 13 16 15 19 21 23 25 29 38 58 24 23 34 31 14 9 2 3 11 7 7 8 13
41 80 98 97 80 93 82 57 8 4 4 3 34 21 28 36 35 33 33 22 10 8 15 37 13 13 17 9 10 15 21 12 11 10 20 72 29 59 29 29 55 36 10 16 14 8 7 5 5
78 94 93 76 68 94 97 72 18 5 3 3 4 5 9 16 43 35 29 8 14 11 10 25 5 20 19 7 10 20 14 8 5 4 6 24 78 56 60 59 55 52 27 42 12 5 4 6 6
86 91 92 96 87 79 97 81 20 6 3 4 2 2 6 15 17 20 11 11 12 6 12 12 13 24 8 14 24 28 17 18 13 11 14 34 67 56 50 47 47 30 20 15 21 11 9 8 8
72 91 96 97 96 94 90 94 66 15 4 3 4 1 3 10 10 8 8 8 10 12 12 5 17 16 6 16 23 30 25 16 11 20 42 25 35 60 40 39 27 20 19 22 19 13 12 10 10
64 89 92 90 92 96 73 80 93 39 2 3 2 3 2 9 12 15 9 6 11 8 3 12 21 17 8 16 18 16 15 23 9 7 6 26 14 9 56 38 21 12 6 25 16 15 8 12 12
46 85 95 96 95 93 100 78 97 54 5 3 3 4 3 3 8 9 8 9 8 2 2 18 13 8 18 8 3 3 8 6 7 10 3 24 12 13 18 25 23 40 16 19 16 10 8 6 6
46 64 85 95 75 89 73 34 81 34 16 3 3 6 3 8 7 7 5 10 3 2 10 14 14 9 14 13 5 4 9 11 6 6 11 18 10 9 20 33 27 35 16 11 8 10 5 5 6
40 40 54 74 88 89 91 38 26 94 74 25 2 2 3 6 7 7 7 3 4 3 3 8 6 2 5 6 14 2 1 35 39 32 19 22 32 31 34 30 32 28 10 12 18 9 5 5 4
36 26 47 79 79 86 87 72 39 44 27 28 3 2 2 2 3 3 2 1 2 2 2 1 2 2 0 3 28 39 38 38 30 13 21 20 30 32 30 28 28 33 26 17 14 9 6 6 5
36 36 50 73 78 92 92 78 92 52 34 27 8 3 2 3 1 2 1 1 1 2 2 2 2 2 1 0 8 21 21 10 12 6 0 7 13 21 17 14 15 12 15 15 22 14 8 7 6
27 26 45 78 89 90 86 75 79 58 48 29 8 2 2 2 3 2 1 0 1 2 4 4 4 4 4 4 4 7 2 5 5 2 4 10 10 6 7 11 15 10 11 15 14 14 12 9 7
27 28 45 78 92 81 97 92 73 91 91 89 10 5 4 2 2 2 2 3 3 3 3 3 3 3 3 4 3 9 28 25 16 11 5 6 6 9 14 16 12 12 14 18 21 22 22 15 8
8 32 42 80 95 92 87 91 98 99 91 84 20 41 14 12 3 3 2 2 2 2 1 1 1 1 2 2 3 12 12 12 13 9 10 8 8 12 15 16 12 11 12 15 20 22 25 26 26
2 33 55 76 85 84 83 97 70 99 79 62 83 74 36 23 12 13 7 7 8 9 6 3 2 1 0 1 2 3 14 16 23 14 8 14 14 15 17 11 12 17 30 39 43 45 36 39 33
3 15 40 70 74 83 79 88 77 93 76 95 89 80 83 65 45 19 34 36 33 29 28 30 29 23 13 2 1 2 7 11 22 16 21 24 16 16 10 8 22 36 42 41 51 67 64 62 47
5 6 19 52 63 57 76 82 50 78 94 79 78 72 83 75 54 42 32 52 39 38 48 54 52 37 37 19 3 0 4 6 6 8 12 18 16 9 22 22 37 42 46 40 33 55 60 56 64
5 8 5 5 22 30 40 67 51 54 81 84 85 95 89 93 81 76 64 70 58 52 54 56 59 51 34 24 27 12 2 2 2 7 11 16 20 26 26 42 35 37 33 28 34 38 43 40 51
4 5 10 13 24 28 21 37 52 57 61 71 86 89 70 88 88 82 90 87 56 49 54 63 50 35 31 22 15 24 30 30 25 10 18 17 46 29 20 39 37 44 54 56 57 63 85 78 57
5 7 16 19 19 17 10 35 22 54 60 60 63 73 80 79 89 69 85 74 44 46 48 49 36 34 21 12 11 14 23 37 37 25 16 24 22 23 32 43 36 42 61 71 70 79 87 82 70
6 5 11 16 20 18 29 6 26 53 65 67 62 62 66 62 56 48 58 63 43 49 48 50 38 36 32 15 14 10 10 13 27 14 21 27 19 36 39 38 43 33 47 65 68 63 82 77 54
10 7 10 9 12 22 22 6 16 56 62 62 62 66 72 70 67 55 64 70 48 54 46 40 40 47 46 17 14 6 6 9 14 18 25 24 21 22 24 33 36 42 49 52 75 84 78 73 49
Wind_Speed
9 10 3 5 9 5 7 7 3 2 3 3 7 7 9 9 13 15 10 15 16 13 18 19 20 17 14 10 9 11 10 9 8 7 7 8 8 7 8 10 9 9 9 7 6 5 6 6 8
11 12 17 12 12 7 7 11 11 2 4 4 7 4 6 13 13 12 11 15 19 21 19 18 16 14 11 8 8 10 10 8 7 6 5 6 6 5 9 9 9 11 11 9 7 7 6 6 6
11 19 8 5 3 11 10 4 3 5 6 8 8 6 5 7 11 16 14 16 17 17 16 14 13 12 10 9 10 10 9 7 5 4 3 5 5 8 9 10 10 11 9 8 8 9 7 5 5
9 12 11 25 23 19 16 4 5 11 7 6 7 7 7 7 10 14 14 14 14 14 12 12 12 11 10 10 11 9 8 6 4 3 3 5 7 8 10 11 12 11 11 11 10 8 7 5 3
17 18 25 19 21 20 16 8 14 7 4 4 3 3 5 6 12 14 15 14 13 11 11 11 10 11 10 11 10 9 8 6 5 3 4 6 7 8 9 11 12 11 10 12 10 8 6 4 2
6 3 13 19 10 22 12 9 3 7 4 2 2 5 4 8 15 15 15 13 10 10 10 10 9 10 11 12 11 10 9 9 8 8 8 8 8 9 9 9 8 9 10 9 8 7 6 4 1
4 11 12 13 15 10 12 7 6 6 3 5 0 5 3 8 14 17 15 11 9 8 9 9 9 11 12 13 12 12 12 13 12 11 11 10 8 8 8 8 8 9 9 10 8 7 5 4 4
14 8 13 12 15 9 15 19 4 14 2 4 4 6 6 8 12 14 12 7 6 7 8 9 10 11 12 12 12 13 13 13 12 12 11 10 10 9 10 9 10 12 11 13 13 11 9 7 5
12 2 11 13 8 8 16 16 17 13 4 10 9 10 6 9 10 12 9 4 2 7 8 11 12 12 12 12 13 13 13 12 12 13 11 10 12 12 12 14 15 15 14 15 15 13 13 12 10
15 6 10 2 2 17 12 14 12 14 10 7 5 3 7 10 7 9 7 2 3 7 10 12 12 11 12 13 14 15 13 14 14 13 13 14 18 14 12 16 17 17 15 14 15 16 15 16 13
8 7 4 5 5 13 18 18 8 12 14 7 5 2 6 8 9 8 7 4 5 8 11 13 12 10 12 14 16 15 15 14 14 14 12 17 11 12 18 11 13 9 12 12 13 14 14 15 13
20 12 8 10 13 14 18 16 11 10 12 10 8 3 8 9 7 8 9 10 8 10 13 11 11 10 11 14 15 13 12 12 11 14 13 14 8 10 11 13 14 13 10 10 12 13 13 12 11
20 12 1 9 7 16 22 16 21 14 13 9 8 9 2 10 8 8 7 7 9 12 12 12 12 11 13 13 14 12 10 10 9 9 9 13 11 11 9 10 13 11 8 10 12 12 12 11 10
21 12 7 3 12 17 15 19 17 18 16 9 7 7 4 9 8 7 7 9 10 11 12 12 11 11 12 12 11 10 8 7 7 7 6 8 9 9 10 10 9 7 9 12 12 11 12 11 11
19 19 17 11 16 17 16 26 10 18 16 6 5 6 5 3 8 7 8 11 12 11 11 13 10 10 11 11 9 7 6 5 6 6 5 5 6 7 7 7 8 10 12 13 13 14 13 13 13
24 25 24 18 12 13 14 16 19 17 15 10 3 5 3 4 7 9 11 11 13 13 11 10 11 10 10 8 7 7 7 5 4 3 2 2 3 4 6 7 7 9 12 13 14 16 16 16 15
28 23 22 18 17 21 10 16 14 21 21 18 6 5 1 5 7 10 11 11 13 12 12 10 7 7 6 6 6 5 4 3 3 2 1 4 4 4 6 7 9 10 11 13 15 16 17 17 17
22 19 20 15 10 13 20 12 14 17 23 15 11 4 3 6 9 10 8 9 10 10 10 9 7 4 5 4 3 2 1 2 3 1 0 2 4 5 7 9 11 13 16 17 18 18 18 18 18
19 22 18 9 15 21 23 22 15 19 22 23 14 5 4 6 8 9 8 9 8 8 7 6 4 3 2 2 1 1 2 2 4 4 3 4 5 7 10 13 15 18 18 18 18 19 20 21 18
21 22 22 20 22 27 26 22 13 12 15 17 16 5 6 6 7 8 9 9 9 8 8 7 5 4 4 4 3 2 3 3 3 2 2 5 8 11 13 16 19 20 19 20 19 18 19 19 19
27 22 24 25 19 22 24 21 23 15 25 20 13 5 3 8 9 10 11 11 10 9 10 8 7 8 7 7 6 5 6 6 4 3 5 8 11 14 16 17 17 16 16 16 17 16 16 17 18
27 24 27 28 23 23 23 21 20 27 29 21 4 6 7 5 10 10 9 10 10 11 10 10 11 11 12 10 11 9 9 10 7 4 6 8 12 14 15 16 15 14 14 15 17 20 21 19 19
23 28 34 33 28 25 23 30 23 25 29 18 19 10 11 9 11 9 12 13 13 12 14 14 13 12 15 14 14 12 12 11 10 9 7 9 10 11 12 13 14 14 15 16 19 19 19 20 21
27 31 37 38 31 35 31 29 30 28 26 28 21 10 19 15 13 12 10 13 15 17 17 16 16 16 16 17 16 16 16 14 13 11 10 9 12 10 10 12 11 14 14 17 21 21 24 26 20
31 38 39 47 46 46 35 34 33 14 23 30 28 23 25 22 15 10 14 17 19 16 16 15 16 18 19 19 18 19 18 15 15 13 10 9 8 8 7 11 11 9 11 20 25 25 29 33 22
32 38 47 47 49 46 41 41 32 17 15 23 31 35 29 34 26 11 12 13 18 18 16 16 18 20 19 19 22 21 20 15 15 12 10 7 8 5 8 9 10 10 14 18 23 26 30 32 32
30 38 31 43 45 43 44 40 26 25 23 27 31 23 32 26 32 13 10 16 16 19 18 17 17 18 20 20 22 21 22 18 17 13 8 5 4 5 8 6 8 12 15 17 21 25 32 30 30
37 30 35 39 46 50 42 45 38 23 24 32 32 28 32 31 28 26 10 18 28 21 20 19 14 11 12 16 18 18 18 17 14 10 6 5 6 11 5 6 11 11 17 20 20 26 30 29 27
36 40 43 37 41 43 45 45 31 26 19 29 30 32 36 41 30 30 19 26 24 22 23 23 15 12 12 13 11 12 15 12 9 8 6 5 6 4 4 6 7 11 16 24 26 29 30 33 32
39 40 40 47 41 46 45 41 32 28 26 30 32 34 33 36 30 27 22 30 25 23 20 22 14 13 13 14 10 9 7 5 9 8 6 5 6 5 6 12 14 15 16 23 34 38 37 33 31
Wind_Direction
128 132 92 288 110 101 136 113 134 99 150 15 47 63 145 114 93 95 69 82 88 105 109 107 109 109 105 105 110 106 96 93 98 91 72 61 59 61 67 70 69 64 61 61 65 78 95 75 79
116 129 77 97 138 81 125 100 121 145 113 199 70 89 117 111 92 83 85 91 100 110 110 109 109 107 103 99 106 98 101 98 90 76 61 55 46 54 64 71 71 67 62 64 70 81 85 93 91
127 85 77 120 81 35 140 102 60 69 336 56 62 44 94 76 77 100 96 95 100 104 107 103 102 102 104 106 99 93 91 89 86 70 33 46 51 59 62 70 74 66 62 68 71 74 87 91 88
91 360 134 56 20 15 49 93 126 36 15 358 35 59 102 71 104 106 100 108 111 104 96 93 97 95 96 89 83 84 90 84 64 40 48 68 67 63 70 69 70 67 60 57 57 59 76 96 90
300 44 79 48 5 7 61 100 83 28 36 22 62 94 120 112 116 119 120 118 109 97 94 98 97 90 85 82 87 88 86 78 67 75 79 82 79 73 62 62 60 60 56 61 62 56 51 70 98
57 1 81 90 4 352 23 4 342 330 28 341 123 85 118 132 126 128 127 119 106 99 98 99 96 89 81 84 86 90 89 82 83 82 79 86 79 55 50 61 66 61 60 55 55 56 46 39 11
135 79 101 94 93 334 356 330 2 315 16 293 264 92 123 139 137 140 143 126 108 107 107 101 92 85 88 88 93 95 92 88 82 81 84 90 87 76 67 56 58 60 60 63 59 56 44 27 0
136 100 60 102 116 307 327 330 322 325 360 237 198 119 172 154 148 144 151 129 112 118 119 103 96 99 96 96 98 99 92 90 91 91 94 94 87 86 79 64 59 55 52 63 63 60 58 46 24
186 84 352 100 84 282 306 309 325 327 276 301 174 136 170 159 162 156 164 160 146 125 125 113 111 104 97 98 101 101 96 94 95 97 98 81 86 81 80 89 78 71 66 69 68 64 62 61 50
194 70 347 55 135 356 322 338 313 305 290 326 318 266 211 173 202 187 187 215 164 133 130 120 109 99 96 94 105 104 103 101 98 98 101 89 81 81 95 83 81 75 71 75 75 73 70 68 59
130 145 244 358 32 351 314 322 312 295 305 315 232 245 250 213 211 247 248 194 156 141 133 119 111 100 98 105 111 110 105 101 98 98 93 87 97 94 74 88 73 64 73 62 68 72 66 64 54
126 95 324 22 23 349 308 307 352 281 310 323 319 285 201 218 192 222 212 177 152 146 132 122 111 107 104 113 120 119 117 114 104 101 94 91 76 77 60 93 74 72 68 59 58 58 53 53 45
145 128 23 342 15 334 291 304 316 310 330 347 329 328 204 175 196 193 200 162 153 150 137 126 124 116 114 122 123 121 124 114 107 91 89 91 86 72 74 62 54 57 50 49 45 42 41 37 39
156 142 275 308 295 293 292 286 285 326 319 340 337 336 317 155 177 195 195 165 164 153 141 136 129 124 119 122 123 128 131 122 104 103 76 56 58 55 50 54 49 37 32 29 24 22 22 17 14
184 173 180 207 230 266 269 258 234 306 319 334 344 338 313 203 163 185 184 170 167 154 151 141 138 135 136 124 113 115 133 125 116 115 116 43 38 32 39 36 23 13 10 12 2 358 356 349 347
209 186 186 184 230 228 268 288 286 280 323 318 342 319 310 186 144 165 169 174 161 157 150 152 148 135 126 123 114 96 98 106 110 123 91 28 21 3 1 7 11 1 356 352 352 344 345 340 339
220 204 191 186 214 248 263 260 310 265 297 308 293 305 260 164 164 164 171 173 174 173 163 158 147 149 141 129 125 113 103 93 98 119 26 358 274 21 340 348 346 341 338 335 334 334 333 330 334
227 212 171 166 203 257 270 277 269 311 295 291 278 261 247 171 165 167 178 180 174 175 171 170 170 159 160 161 128 114 228 151 163 163 175 290 330 354 338 343 336 331 323 320 323 323 324 319 324
220 224 149 141 224 260 263 270 257 329 292 283 268 216 241 213 192 190 190 188 185 192 201 199 186 199 228 227 222 196 151 170 180 189 232 295 330 345 341 335 333 330 325 325 323 320 319 316 312
221 226 160 164 240 246 267 299 263 307 283 271 262 222 218 229 193 198 199 208 207 222 237 240 239 239 257 247 222 231 216 218 213 235 317 337 335 336 332 327 324 329 328 325 320 319 314 310 309
215 220 181 189 194 246 254 266 246 271 267 250 244 264 265 264 241 210 210 208 216 226 238 252 265 268 250 253 252 244 230 231 239 264 335 346 337 327 329 329 331 328 322 318 317 313 313 311 306
219 215 206 186 201 237 252 250 247 253 265 245 234 299 293 282 279 275 251 245 238 240 247 255 254 259 267 259 251 251 244 241 245 276 295 318 329 330 329 324 314 306 301 303 305 308 308 304 298
222 207 204 186 200 258 235 228 238 253 258 251 277 259 269 275 273 275 283 284 283 277 273 265 264 262 265 260 262 259 256 256 258 263 282 303 325 320 317 301 306 323 328 326 320 313 311 313 301
219 213 205 195 206 223 244 243 241 234 272 267 264 278 275 266 277 256 275 287 288 289 280 280 277 272 265 264 256 257 257 262 269 276 295 311 317 305 299 302 318 324 344 10 2 345 323 318 304
219 214 209 209 210 222 220 238 236 223 238 263 270 263 267 285 240 267 266 290 292 277 273 271 267 264 268 262 252 254 258 265 267 275 295 311 284 300 303 330 333 344 347 357 9 6 3 4 324
232 218 219 221 220 227 224 229 230 211 255 279 275 249 263 251 246 230 257 268 292 280 268 267 266 264 262 269 265 255 256 258 265 270 282 273 284 303 314 332 344 4 2 10 8 14 10 6 13
235 236 240 229 231 231 230 230 231 242 249 258 270 277 291 282 267 214 258 282 293 269 270 265 262 263 263 264 270 263 257 259 264 270 267 229 253 7 354 318 354 0 5 7 11 10 3 357 357
227 239 228 229 231 235 230 221 228 213 247 253 260 261 268 269 270 242 226 272 288 284 261 254 247 264 266 266 265 263 258 255 261 264 228 210 291 322 316 318 338 342 1 358 360 355 349 345 342
226 223 226 234 236 235 237 239 217 205 237 257 252 262 267 275 274 276 283 267 296 276 258 259 250 254 273 273 278 273 261 256 248 210 212 271 311 323 293 316 312 321 345 356 353 344 340 335 337
229 232 230 233 235 237 239 246 211 206 223 244 259 262 264 269 281 283 270 259 271 263 253 255 249 252 270 280 284 294 266 202 195 190 219 260 286 313 312 307 311 320 332 343 346 341 335 330 331